Kiana, AK

10:05 AM AKST on January 22, 2017 (GMT -0900)
Baker Memorial

Weather History for PAIK - June, 2013

Change the Weather History Date:

Friday, June 14, 2013

  Actual Average (PASK) Record (PASK)
Temperature  
Mean Temperature 68 °F -  
Max Temperature 55 °F 56 °F 73 °F (2013)
Min Temperature 57 °F 40 °F 33 °F (2000)
Cooling Degree Days 2    
Growing Degree Days 18 (Base 50)    
Moisture  
Dew Point 44 °F    
Average Humidity 46    
Maximum Humidity 67    
Minimum Humidity 29    
Precipitation  
Precipitation 0.00 in - - ()
Sea Level Pressure  
Sea Level Pressure 30.20 in    
Wind  
Wind Speed 4 mph (SSW)    
Max Wind Speed 16 mph    
Max Gust Speed 22 mph    
Visibility 10 miles    
Events Rain    
Averages and records for this station are not official NWS values.
T = Trace of Precipitation, MM = Missing Value Source: NWS Daily Summary

Daily Weather History Graph

Daily Weather History Graph

Search for Another Location

Airport or City:

Trip Planner

Search our weather history database for the weather conditions in past years. The results will help you decide how hot, cold, wet, or windy it might be!

Date:

Astronomy

Jun. 14, 2013 Rise Set
Actual Time 3:14 AM AKDT 2:09 AM AKDT
Civil Twilight Sun does not rise Sun does not rise
Nautical Twilight Sun does not rise Sun does not rise
Astronomical Twilight Sun does not rise Sun does not rise
Moon 12:20 PM AKDT (6/14) 2:13 AM AKDT (6/14)
Length of Visible Light 24h 00m
Length of Day
22h 55m
Waxing Crescent, 31% of the Moon is Illuminated
Jun 14
Waxing Crescent
Jun 16
First Quarter
Jun 23
Full
Jun 29
Last Quarter
Jul 7
New

Hourly Weather History & Observations

Time (AKDT) Temp. Dew Point Humidity Pressure Visibility Wind Dir Wind Speed Gust Speed Precip Events Conditions
12:01 AM 72.0 °F 41.0 °F 33% 30.14 in 10.0 mi Calm Calm - N/A   Clear
1:01 AM 68.0 °F 41.0 °F 37% 30.15 in 10.0 mi Calm Calm - N/A   Partly Cloudy
2:01 AM 66.0 °F 41.0 °F 40% 30.16 in 10.0 mi NE 4.6 mph - N/A   Mostly Cloudy
3:01 AM 64.9 °F 39.9 °F 40% 30.16 in 10.0 mi ENE 3.5 mph - N/A   Partly Cloudy
4:01 AM 62.1 °F 41.0 °F 46% 30.16 in 10.0 mi Calm Calm - N/A   Mostly Cloudy
5:01 AM 61.0 °F 42.1 °F 50% 30.17 in 10.0 mi South 3.5 mph - N/A   Partly Cloudy
6:01 AM 60.1 °F 42.1 °F 51% 30.17 in 10.0 mi East 3.5 mph - N/A   Clear
7:01 AM 60.1 °F 43.0 °F 53% 30.17 in 10.0 mi East 3.5 mph - N/A   Clear
8:01 AM 62.1 °F 45.0 °F 53% 30.18 in 9.0 mi Calm Calm - N/A   Clear
9:01 AM 64.9 °F 44.1 °F 47% 30.19 in 10.0 mi SE 3.5 mph - N/A   Clear
10:01 AM 69.1 °F 43.0 °F 39% 30.20 in 10.0 mi South 5.8 mph - N/A   Clear
11:01 AM 71.1 °F 42.1 °F 35% 30.20 in 10.0 mi South 8.1 mph - N/A   Clear
12:01 PM 73.9 °F 43.0 °F 33% 30.20 in 10.0 mi SSW 8.1 mph - N/A   Partly Cloudy
1:01 PM 75.9 °F 41.0 °F 29% 30.20 in 10.0 mi SW 9.2 mph 17.3 mph N/A   Clear
2:01 PM 73.9 °F 41.0 °F 30% 30.20 in 10.0 mi WSW 8.1 mph - N/A   Scattered Clouds
3:01 PM 73.0 °F 41.0 °F 31% 30.20 in 10.0 mi SW 8.1 mph - N/A   Partly Cloudy
4:01 PM 69.1 °F 46.0 °F 44% 30.23 in 10.0 mi WSW 16.1 mph 21.9 mph N/A   Scattered Clouds
5:01 PM 69.1 °F 46.0 °F 44% 30.21 in 10.0 mi North 8.1 mph - N/A   Partly Cloudy
6:01 PM 66.9 °F 46.0 °F 47% 30.24 in 10.0 mi Variable 4.6 mph - N/A   Scattered Clouds
7:01 PM 61.0 °F 48.0 °F 62% 30.26 in 10.0 mi SW 5.8 mph - N/A   Overcast
8:01 PM 63.0 °F 48.9 °F 60% 30.23 in 10.0 mi NNW 10.4 mph 17.3 mph N/A   Overcast
9:01 PM 60.1 °F 48.0 °F 64% 30.25 in 10.0 mi WSW 6.9 mph 16.1 mph N/A Rain Light Rain
10:01 PM 60.1 °F 48.0 °F 64% 30.25 in 10.0 mi WSW 3.5 mph - N/A   Scattered Clouds
11:01 PM 57.9 °F 46.9 °F 67% 30.26 in 10.0 mi SW 5.8 mph - N/A   Mostly Cloudy